Notices

What's New in latest Release from April 7th, 2021:

- Updated Glossary, including Speed of Maximum Gust, and Total Hourly Precipitation

- Updated national and regional climate services offices contacts and prices information

- Addition of station inventory lists for 1981-2010, 1971-2000, and 1961-1990 Normals.

If you haven't already, please take our survey and provide feedback about our website: https://eccc.sondage-survey.ca/f/LanguageSelection.aspx?s=442ca660-fcf1-47c0-95a9-59707d6fd709

Hourly Data Report for January 14, 2003

TORONTO CITY
ONTARIO

43°40'00.000" N
79°24'00.000" W
112.50 m
6158355
71508
XTO

Download Data

Hourly Data (January 2003)
Hourly Data Report for January 14, 2003
TIME
LST
Temp Definition
°C
Dew Point Definition
°C
Rel Hum Definition
%
Precip. Amount Definition
mm

Wind Dir Definition
10's deg

Wind Spd Definition
km/h
Visibility Definition
km
Stn Press Definition
kPa
Hmdx Definition


Wind Chill Definition


Weather Definition


00:00 -7.3 -12.3 67     0 LegendMM 100.47     LegendNANA
01:00
02:00 -7.5 -12.3 68     0 LegendMM 100.49     LegendNANA
03:00 -7.6 -12.6 67     0 LegendMM 100.52     LegendNANA
04:00 -7.6 -12.8 66     0 LegendMM 100.53     LegendNANA
05:00 -9.1 -12.8 74     0 LegendMM 100.54     LegendNANA
06:00 -9.3 -13.2 73     0 LegendMM 100.54     LegendNANA
07:00
08:00 -9.3 -12.4 78     0 LegendMM 100.56     LegendNANA
09:00 -9.0 -12.9 73     0 LegendMM 100.61     LegendNANA
10:00 -8.5 -13.6 67     0 LegendMM 100.62     LegendNANA
11:00 -8.6 -15.3 58     0 LegendMM 100.62     LegendNANA
12:00 -8.1 -15.6 55     0 LegendMM 100.55     LegendNANA
13:00 -6.8 -15.3 51     0 LegendMM 100.46     LegendNANA
14:00 -6.6 -16.1 47     0 LegendMM 100.42     LegendNANA
15:00 -6.4 -15.2 50     0 LegendMM 100.41     LegendNANA
16:00 -6.1 -14.2 53     0 LegendMM 100.41     LegendNANA
17:00 -6.1 -13.5 56     0 LegendMM 100.44     LegendNANA
18:00 -5.9 -11.9 63     0 LegendMM 100.44     LegendNANA
19:00 -5.8 -11.0 67     0 LegendMM 100.42     LegendNANA
20:00 -5.8 -9.4 76     0 LegendMM 100.40     LegendNANA
21:00 -5.4 -10.1 69     0 LegendMM 100.37     LegendNANA
22:00 -5.6 -9.2 76     0 LegendMM 100.34     LegendNANA
23:00 -5.3 -8.9 76     0 LegendMM 100.31     LegendNANA

Notes on Data Quality.

Legend

  • E = Estimated
  • M = Missing
  • NA = Not Available*
  • [empty] = Indicates an unobserved value
Date modified: